Wind_Speed
23 19 15 13 16 20 18 12 10 21 4 5 11 10 17 19 15 12 14 10 6 3 7 8 2 6 10 14 18 19 20 20 21 25 28 29 28 28 27 27 27 27 33 36
17 8 4 6 10 6 8 13 7 1 3 8 8 9 12 13 15 13 15 16 15 14 14 14 14 11 16 19 23 27 27 26 28 32 35 37 35 30 28 27 28 28 29 37
6 8 9 3 8 7 8 9 3 7 11 13 11 16 17 15 12 10 16 21 20 18 15 17 16 19 23 31 33 32 29 31 36 40 44 37 30 28 27 28 27 29 29 32
8 8 1 5 10 10 9 8 9 10 11 12 14 14 19 20 22 21 21 24 26 27 26 24 26 29 31 33 34 33 34 37 42 41 35 31 30 28 24 27 26 27 27 30
3 5 3 3 16 20 12 13 14 14 15 15 12 9 15 17 24 25 26 25 26 26 27 27 28 30 31 31 33 36 38 34 32 31 30 29 28 28 27 28 26 26 27 28
3 3 3 4 17 13 6 8 13 17 17 16 16 9 17 16 15 13 16 17 17 19 20 20 21 21 22 24 24 28 30 31 30 31 31 29 27 27 28 30 28 28 27 28
5 3 4 7 17 11 5 8 17 15 17 17 17 16 16 14 17 19 20 20 20 21 23 24 25 24 24 25 24 25 27 29 33 35 33 32 30 30 29 29 32 29 30 29
5 3 3 17 14 11 11 11 14 14 15 15 15 15 16 18 20 20 22 23 25 25 26 26 26 26 26 27 27 26 27 29 31 32 34 35 35 36 34 31 32 32 32 32
4 7 12 18 13 16 10 11 11 13 14 15 15 14 14 14 16 19 21 23 24 25 25 25 25 26 26 26 27 29 29 30 32 33 35 36 37 38 40 35 32 31 36 35
9 8 12 16 9 12 8 9 11 13 14 15 15 16 16 16 16 17 18 19 20 21 22 23 24 26 28 28 30 31 32 32 32 31 31 35 38 39 40 38 34 32 36 37
9 11 15 11 10 8 8 9 12 15 14 13 14 16 18 19 20 21 22 22 23 23 23 22 22 24 26 28 30 31 32 33 33 32 31 31 31 32 34 37 33 32 33 37
9 12 12 10 8 8 9 10 11 13 13 13 16 19 20 22 23 24 24 23 24 24 24 24 24 23 24 26 28 31 31 30 30 29 28 28 28 29 33 28 25 30 30 35
9 12 11 9 9 9 10 11 12 12 13 16 19 21 23 24 24 24 25 25 25 25 25 25 25 25 25 27 29 31 32 31 28 28 26 25 24 25 29 28 28 29 30 30
10 13 11 11 9 10 12 13 14 15 18 20 22 25 27 28 28 27 26 27 27 26 26 26 27 26 25 27 28 29 31 30 28 24 23 21 22 23 26 28 31 29 32 33
12 14 13 12 11 11 12 14 17 19 22 23 25 27 29 29 30 29 30 29 29 27 27 26 26 25 24 25 26 28 30 28 26 22 19 17 17 18 20 22 22 23 23 23
16 16 13 12 13 13 15 18 20 22 24 26 28 29 30 31 31 31 32 31 30 28 27 25 24 24 22 22 23 26 26 27 25 22 17 14 11 10 12 13 12 11 10 9
17 14 13 13 14 16 18 20 23 25 27 29 31 31 32 32 32 32 33 33 33 31 28 26 23 22 21 20 20 21 23 23 23 22 19 14 10 7 7 7 6 3 2 2
12 11 12 13 16 19 22 24 27 29 31 32 33 33 33 33 33 32 32 31 31 30 27 24 22 20 18 17 17 18 20 20 21 20 19 18 16 14 12 14 13 11 8 6
10 11 13 17 19 21 25 28 29 31 32 34 34 34 34 32 31 31 29 28 27 25 24 21 20 19 17 15 15 15 16 16 17 17 17 17 17 18 18 17 16 16 17 19
10 14 17 20 23 26 29 30 31 32 32 31 28 27 27 27 27 27 27 26 25 24 22 19 18 17 15 14 13 13 13 13 14 14 13 14 15 15 16 16 15 16 17 18
13 16 20 24 26 28 30 31 31 30 29 26 24 23 24 25 26 25 25 25 24 24 22 19 16 15 14 12 11 11 10 11 11 11 11 11 11 12 13 14 13 13 13 13
16 22 26 27 29 30 30 30 28 26 25 24 23 24 26 27 27 26 24 22 20 20 19 16 14 14 13 11 10 9 9 9 9 8 7 8 8 9 10 11 11 12 11 10
20 25 27 29 30 29 28 26 24 21 21 23 23 24 24 24 24 23 23 22 21 19 16 14 12 12 12 10 9 8 8 7 5 5 4 4 4 6 7 9 10 10 9 7
23 26 29 30 29 27 25 23 20 19 20 21 22 23 22 23 24 22 22 21 19 17 16 12 11 12 11 11 10 8 7 6 4 2 1 1 3 3 4 4 5 6 7 8
25 27 27 27 26 24 22 20 19 19 20 21 21 23 22 22 21 21 20 19 18 17 15 13 11 11 11 11 10 9 7 6 5 4 3 2 1 2 2 3 4 5 5 5
27 27 26 25 23 21 19 19 19 20 20 21 21 22 22 21 21 20 20 19 18 16 15 13 12 11 11 11 11 10 9 8 8 7 6 5 4 3 2 2 3 4 4 5
26 25 22 20 19 19 19 20 21 21 21 21 20 20 20 20 19 19 18 18 17 16 15 13 12 11 10 9 10 10 10 10 10 9 8 7 6 6 6 6 6 6 6 6
Wind_Direction
281 277 297 297 302 306 301 296 297 306 304 344 17 1 331 337 4 359 6 8 37 24 16 45 175 226 314 294 287 284 284 287 286 282 287 290 291 288 284 282 275 271 256 247
295 305 292 273 293 319 332 308 262 355 304 333 330 327 305 334 318 334 343 345 345 343 341 333 314 299 282 286 284 285 289 291 287 289 293 294 293 290 282 278 274 272 266 249
273 328 299 241 326 339 320 316 31 3 306 313 313 304 304 306 307 316 316 315 318 318 302 302 302 298 284 287 293 294 284 282 289 293 297 297 296 292 282 273 273 269 272 259
290 342 235 345 345 321 286 281 317 304 297 325 307 300 293 295 298 298 297 300 303 306 306 303 298 298 296 292 294 291 282 280 284 289 288 291 293 292 282 273 271 274 269 263
277 299 210 17 342 335 311 278 313 315 323 315 314 301 273 282 294 300 305 305 305 306 308 307 305 301 299 294 288 282 281 281 282 287 288 289 287 287 283 270 271 271 272 262
316 266 225 309 350 341 327 239 332 330 319 323 327 292 275 291 299 310 316 316 310 306 306 306 307 308 304 297 295 286 280 277 282 288 286 284 284 284 284 272 268 264 272 275
345 272 257 322 351 353 343 311 322 321 327 324 318 315 314 319 315 318 318 314 312 310 309 309 308 307 306 306 305 298 294 290 283 281 282 280 279 281 278 273 267 266 268 273
326 292 301 335 339 356 328 331 331 331 329 333 330 329 321 316 315 318 313 310 310 310 307 305 302 300 302 304 307 304 296 290 286 281 278 277 276 277 276 272 266 264 266 271
306 279 299 320 320 342 345 347 351 354 347 351 355 349 344 338 334 330 325 322 321 319 315 310 308 306 306 305 306 305 301 295 289 282 277 275 275 276 277 274 270 267 266 264
321 323 314 320 319 342 352 357 351 351 353 353 357 359 2 1 355 348 339 332 327 323 318 315 314 312 313 313 314 311 306 301 296 288 282 277 275 273 276 282 279 272 265 261
311 328 332 336 335 341 340 339 341 344 346 350 356 358 358 358 355 354 351 348 345 343 336 329 324 321 320 319 318 317 315 310 303 294 291 286 281 276 275 286 279 270 258 256
314 329 326 324 336 338 330 325 327 335 340 343 344 346 347 346 345 345 344 345 344 342 340 332 325 321 320 318 320 321 319 315 309 300 295 290 282 271 277 269 268 266 260 254
316 327 327 326 332 333 331 329 329 330 330 332 336 337 334 334 333 332 334 336 337 337 339 337 334 331 331 329 330 329 325 325 322 310 299 288 279 266 280 269 265 271 261 261
314 324 324 316 322 321 320 324 327 325 324 326 326 324 323 323 323 323 325 327 329 331 332 335 336 335 334 334 335 334 338 338 330 318 308 299 283 278 281 271 275 272 266 259
317 318 312 310 307 311 316 321 320 317 315 316 316 315 316 316 317 316 315 317 318 321 325 329 329 331 333 335 339 343 348 346 340 333 323 308 292 284 284 282 280 275 264 253
312 309 305 311 311 312 312 311 313 314 314 314 314 314 314 315 314 313 311 310 310 310 313 317 321 324 331 335 340 345 351 354 355 353 342 327 318 312 302 296 283 262 241 227
298 297 303 306 309 311 312 312 312 313 315 315 314 312 310 310 309 309 309 309 307 304 303 306 312 318 326 332 339 345 351 359 5 9 5 358 359 10 11 6 340 324 330 255
297 301 307 310 311 313 315 316 318 318 316 314 313 311 309 308 307 307 306 305 302 302 302 301 305 311 319 327 335 343 350 1 9 14 15 21 26 37 42 50 45 45 59 85
294 301 310 315 317 319 319 321 320 318 317 316 314 312 310 308 306 304 304 303 303 303 303 300 299 303 309 318 328 336 346 356 7 17 23 28 37 44 49 55 65 76 82 86
303 314 317 317 319 318 319 320 320 318 318 316 319 321 321 320 316 313 312 309 307 305 303 300 295 297 302 312 322 330 340 351 1 10 22 34 41 45 50 58 64 72 81 89
308 318 321 320 318 318 321 321 319 320 320 321 325 326 328 329 327 325 321 316 314 311 307 303 298 296 299 306 316 324 334 344 354 6 15 30 40 46 50 56 58 66 75 84
304 315 319 320 319 319 321 318 320 322 319 322 327 335 339 336 334 332 327 323 318 314 310 304 300 295 294 299 306 317 327 340 344 0 17 27 40 48 54 59 64 66 73 88
304 312 316 317 317 318 316 317 320 320 321 324 332 337 336 334 334 333 329 328 326 320 314 310 301 294 290 291 296 304 314 326 328 331 357 19 33 48 58 66 74 80 83 83
307 312 313 313 313 314 317 319 320 321 321 326 332 332 333 334 335 336 332 330 329 324 316 313 305 296 291 290 293 296 303 309 311 315 321 22 49 57 70 82 97 104 109 119
306 306 307 309 313 317 316 316 319 319 325 330 330 326 329 333 335 336 335 328 326 323 319 314 309 302 297 290 287 289 288 285 277 264 252 245 190 136 133 130 134 136 132 125
304 305 310 314 314 314 315 316 318 324 326 324 323 323 327 330 332 335 336 333 329 325 321 319 314 306 299 294 287 283 279 274 270 268 261 250 229 215 197 161 149 150 150 153
305 308 311 312 312 312 315 318 320 319 317 317 317 319 322 325 327 330 333 334 331 328 325 322 318 313 307 300 294 289 283 277 273 267 260 246 234 222 211 212 218 222 217 211
Height
3036 3034 3033 3031 3028 3026 3023 3021 3018 3011 3009 3007 3004 3001 2995 2991 2989 2985 2979 2977 2976 2977 2976 2976 2978 2980 2980 2984 2987 2987 2987 2986 2985 2986 2985 2985 2984 2984 2983 2981 2981 2981 2982 2984
3029 3029 3029 3028 3026 3023 3020 3016 3014 3010 3007 3005 3003 3000 2998 2993 2989 2988 2984 2982 2979 2977 2976 2977 2978 2979 2981 2981 2982 2982 2980 2979 2979 2978 2978 2977 2975 2975 2974 2974 2973 2972 2972 2974
3026 3025 3024 3025 3022 3020 3018 3015 3010 3009 3007 3003 3002 2999 2995 2992 2991 2989 2986 2984 2983 2981 2981 2980 2979 2980 2980 2978 2977 2975 2974 2972 2971 2970 2968 2965 2964 2964 2964 2964 2964 2963 2963 2963
3025 3024 3024 3024 3021 3018 3016 3013 3011 3009 3005 3003 3000 2998 2996 2992 2988 2987 2986 2984 2983 2980 2978 2977 2975 2976 2974 2972 2969 2968 2967 2967 2965 2963 2960 2958 2956 2955 2956 2955 2955 2955 2954 2953
3026 3024 3024 3022 3019 3014 3011 3010 3008 3006 3002 3000 2998 2995 2992 2990 2986 2984 2982 2980 2976 2974 2972 2971 2970 2968 2966 2964 2963 2961 2959 2958 2956 2954 2951 2949 2949 2948 2947 2947 2947 2946 2945 2946
3025 3023 3021 3020 3017 3011 3007 3008 3006 3003 2999 2996 2994 2992 2990 2988 2985 2983 2980 2976 2973 2970 2968 2967 2965 2964 2961 2959 2957 2954 2951 2950 2947 2945 2943 2941 2941 2940 2939 2939 2939 2938 2938 2938
3023 3021 3019 3018 3014 3011 3010 3013 3004 3001 2998 2995 2993 2991 2986 2983 2981 2978 2975 2973 2971 2967 2964 2962 2960 2958 2956 2953 2949 2946 2943 2941 2938 2936 2935 2934 2933 2932 2932 2931 2930 2929 2930 2930
3022 3020 3019 3016 3014 3012 3010 3006 3003 3000 2997 2993 2990 2986 2983 2980 2976 2973 2970 2968 2965 2961 2959 2957 2955 2953 2949 2945 2942 2939 2937 2934 2931 2928 2927 2925 2924 2923 2922 2922 2921 2918 2920 2921
3024 3020 3017 3015 3012 3010 3007 3005 3002 2999 2996 2992 2989 2986 2983 2980 2977 2972 2968 2964 2960 2957 2953 2950 2947 2944 2941 2939 2935 2932 2928 2925 2922 2920 2917 2916 2915 2913 2911 2911 2911 2909 2910 2912
3020 3018 3015 3012 3010 3009 3007 3005 3002 2999 2995 2992 2989 2986 2983 2980 2976 2972 2968 2964 2960 2956 2951 2946 2941 2936 2933 2930 2927 2923 2920 2916 2912 2910 2908 2905 2904 2902 2900 2898 2898 2899 2900 2902
3018 3016 3013 3010 3009 3007 3006 3003 3001 2998 2995 2992 2988 2985 2981 2978 2974 2970 2966 2961 2956 2951 2946 2943 2939 2934 2930 2925 2920 2917 2912 2907 2903 2899 2896 2893 2890 2890 2888 2886 2886 2888 2890 2891
3016 3014 3012 3010 3008 3006 3004 3002 3000 2997 2994 2991 2988 2984 2980 2976 2972 2969 2965 2960 2956 2951 2946 2941 2936 2933 2929 2924 2918 2912 2907 2901 2894 2889 2884 2881 2881 2880 2879 2879 2877 2877 2879 2881
3014 3012 3010 3008 3006 3004 3002 3000 2998 2995 2992 2989 2985 2982 2978 2975 2972 2968 2963 2958 2954 2949 2944 2938 2933 2928 2923 2919 2913 2906 2900 2892 2884 2880 2877 2875 2873 2873 2871 2869 2869 2869 2868 2869
3012 3010 3008 3005 3003 3002 3000 2997 2995 2992 2990 2987 2983 2980 2976 2972 2968 2964 2960 2955 2950 2945 2941 2936 2930 2925 2921 2915 2910 2903 2896 2886 2879 2875 2871 2867 2865 2863 2862 2861 2860 2859 2858 2858
3009 3007 3005 3003 3001 3000 2998 2995 2993 2990 2988 2984 2980 2976 2972 2968 2964 2959 2955 2951 2946 2942 2937 2932 2928 2923 2918 2914 2908 2900 2892 2885 2878 2872 2866 2863 2860 2858 2855 2853 2850 2848 2848 2849
3006 3004 3002 3000 2999 2997 2995 2993 2990 2987 2983 2979 2975 2971 2967 2962 2958 2954 2949 2945 2941 2937 2933 2929 2925 2921 2916 2911 2906 2899 2892 2885 2877 2871 2865 2860 2856 2853 2849 2847 2844 2842 2841 2840
3003 3001 3000 2998 2996 2995 2992 2989 2986 2983 2978 2974 2970 2965 2961 2957 2952 2947 2942 2937 2933 2929 2927 2924 2921 2917 2913 2909 2904 2899 2893 2886 2879 2872 2867 2862 2857 2852 2849 2845 2843 2840 2838 2838
2999 2998 2997 2996 2994 2991 2988 2984 2981 2976 2973 2968 2964 2959 2954 2949 2944 2940 2935 2930 2926 2922 2920 2918 2916 2913 2910 2907 2902 2898 2893 2887 2881 2875 2870 2865 2860 2854 2851 2847 2844 2842 2840 2840
2997 2996 2995 2993 2990 2987 2984 2980 2976 2972 2967 2962 2957 2952 2947 2942 2937 2932 2928 2923 2919 2917 2914 2912 2911 2909 2906 2904 2901 2897 2893 2888 2884 2878 2873 2869 2865 2860 2856 2853 2850 2848 2846 2845
2995 2994 2992 2989 2986 2983 2979 2974 2971 2966 2962 2957 2951 2946 2941 2935 2930 2925 2921 2917 2913 2910 2908 2907 2906 2905 2903 2900 2898 2895 2892 2888 2884 2881 2877 2872 2869 2866 2863 2860 2858 2856 2854 2854
2992 2990 2988 2985 2981 2977 2973 2969 2965 2960 2954 2950 2946 2942 2937 2931 2925 2921 2916 2912 2908 2905 2903 2902 2901 2900 2899 2897 2896 2894 2891 2888 2885 2882 2879 2876 2873 2870 2868 2866 2865 2863 2863 2863
2988 2985 2982 2979 2975 2971 2967 2963 2959 2954 2950 2946 2941 2936 2930 2926 2921 2917 2913 2909 2905 2901 2899 2897 2896 2896 2895 2894 2893 2892 2890 2887 2885 2882 2880 2879 2877 2874 2872 2871 2870 2869 2869 2869
2983 2980 2976 2973 2969 2965 2962 2958 2953 2950 2946 2942 2937 2932 2928 2925 2920 2915 2911 2906 2902 2899 2896 2894 2893 2893 2892 2891 2890 2889 2888 2887 2885 2883 2881 2880 2879 2878 2877 2875 2874 2873 2874 2875
2978 2974 2971 2967 2964 2960 2955 2951 2949 2946 2942 2938 2933 2930 2927 2922 2918 2913 2908 2904 2900 2897 2895 2892 2891 2890 2889 2889 2888 2887 2886 2885 2884 2883 2882 2881 2880 2880 2879 2879 2878 2878 2878 2879
2972 2968 2965 2961 2957 2953 2950 2947 2944 2942 2937 2933 2930 2928 2924 2920 2916 2912 2907 2903 2899 2896 2894 2891 2889 2888 2887 2886 2886 2885 2884 2884 2883 2883 2883 2882 2881 2880 2880 2880 2881 2881 2882 2882
2965 2962 2958 2954 2951 2948 2945 2942 2940 2937 2934 2931 2928 2925 2921 2917 2913 2909 2905 2902 2898 2895 2892 2890 2888 2886 2885 2884 2884 2883 2883 2882 2881 2881 2881 2881 2882 2881 2881 2882 2882 2883 2883 2884
2959 2955 2952 2949 2946 2944 2941 2938 2935 2933 2930 2928 2925 2922 2918 2915 2911 2907 2904 2901 2897 2894 2891 2888 2887 2885 2884 2883 2882 2881 2881 2880 2880 2880 2879 2880 2880 2881 2882 2882 2882 2883 2883 2884